Terug naar catalogus

FENGYUN 2A

ActiefWeerMEO
NORAD 24834·PAYLOAD·🇨🇳 China

Gelanceerd Jun 10, 1997 vanaf Xichang Satellite Launch Center

Loading…

Volgende Passages (komende 24 uur)

TLE

VersSource: Space-Track

Epoch: Sep 14, 2026, 15:06 UTC

1 24834U 97029A   26257.62931603 -.00000270  00000-0  00000-0 0  9990
2 24834  15.6977   5.4412 0105113 240.2269 123.8683  0.96051918104263

Volg FENGYUN 2A in realtime met AllMySat

Download on the App Store